x

8419317 - Wells, Me (welm1) Weather Station

7:18am - Sat 22nd Jul 2017 All times are EDT. -4 hours from GMT.

  • Wind
    6mph, 9mph gusts
  • Sea Temp 65°f
  • Air Temp 73°f
  • Sea Pressure 1010.4mb
  • 8419317 - Wells, Me
  • 8419317 - Wells, Me

More Historic Weather Station data

Upgrade to MSW Pro to gain access to the past 30 days of data for over 8000 Wavebouys and Weather Stations around the globe.

Join Pro

Comparision Forecast

View Surf forecast
   
Sat 07/22 7:18am 6 9 mph 1010.4mb 65f 73f
7:12am 7 9 mph 1010.2mb 66f 73f
7:06am 6 7 mph 1010.2mb 67f 73f
7:00am 6 9 mph 1010.2mb 67f 72f
6:54am 5 10 mph 1010.2mb 67f 72f
6:48am 8 11 mph 1010.2mb 67f 71f
6:42am 8 11 mph 1010.2mb 67f 71f
6:36am 8 13 mph 1010mb 67f 71f
6:30am 8 10 mph 1009.9mb 67f 71f
6:24am 8 10 mph 1009.8mb 67f 70f
6:18am 7 8 mph 1009.8mb 67f 70f
6:12am 6 9 mph 1009.8mb 67f 70f
6:06am 7 9 mph 1009.9mb 67f 69f
6:00am 7 8 mph 1009.8mb 67f 69f
5:54am 7 7 mph 1009.8mb 67f 68f
5:48am 6 7 mph 1009.8mb 67f 68f
5:42am 5 6 mph 1009.8mb 67f 67f
5:36am 6 6 mph 1009.8mb 67f 67f
5:30am 5 8 mph 1009.8mb 67f 67f
5:24am 7 8 mph 1009.8mb 66f 68f
5:18am 7 8 mph 1009.8mb 66f 68f
5:12am 7 8 mph 1009.7mb 66f 68f
5:06am 7 8 mph 1009.8mb 66f 68f
5:00am 7 8 mph 1009.9mb 66f 68f
4:54am 7 8 mph 1009.9mb 66f 69f
4:48am 7 7 mph 1010mb 66f 69f
4:42am 7 8 mph 1009.9mb 66f 69f
4:36am 7 8 mph 1009.8mb 66f 69f
4:30am 7 9 mph 1009.7mb 66f 71f
4:24am 6 9 mph 1009.7mb 66f 71f
4:18am 6 9 mph 1009.7mb 66f 71f
4:12am 6 9 mph 1009.6mb 66f 71f
4:06am 6 8 mph 1009.5mb 66f 71f
4:00am 6 9 mph 1009.4mb 66f 71f
3:54am 7 8 mph 1009.4mb 66f 72f
3:48am 6 10 mph 1009.3mb 66f 72f
3:42am 6 9 mph 1009.3mb 66f 72f
3:36am 6 10 mph 1009.3mb 66f 72f
3:30am 7 9 mph 1009.3mb 66f 72f
3:24am 6 11 mph 1009.3mb 66f 72f
3:18am 7 10 mph 1009.3mb 66f 72f
3:12am 6 9 mph 1009.3mb 65f 73f
3:06am 7 10 mph 1009.2mb 65f 73f
3:00am 6 9 mph 1009.2mb 65f 73f
2:54am 7 9 mph 1009.2mb 65f 73f
2:48am 6 8 mph 1009.2mb 65f 73f
2:42am 6 8 mph 1009.2mb 65f 73f
2:36am 6 9 mph 1009.1mb 65f 73f
2:30am 6 9 mph 1009.1mb 65f 73f
2:24am 6 9 mph 1009mb 65f 73f
2:18am 6 9 mph 1009mb 65f 73f
2:12am 6 9 mph 1009mb 65f 73f
2:06am 7 10 mph 1009mb 65f 74f
2:00am 7 10 mph 1009.1mb 64f 74f
1:54am 7 10 mph 1009mb 64f 74f
1:48am 8 10 mph 1009.1mb 64f -
1:42am 7 10 mph 1009mb 64f -
1:36am 9 13 mph 1009mb 64f -
1:30am 9 13 mph 1009mb 64f 74f
1:24am 10 14 mph 1008.9mb 64f 74f
1:18am 10 13 mph 1008.9mb 64f 74f
1:12am 7 13 mph 1008.9mb 64f 74f
1:06am 7 11 mph 1009mb 64f 74f
1:00am 8 11 mph 1009mb 64f 75f
12:54am 8 10 mph 1009mb 63f 75f
12:48am 7 13 mph 1008.9mb 63f 75f
12:42am 8 11 mph 1008.9mb 63f 75f
12:36am 6 11 mph 1008.8mb 63f 75f
12:30am 9 13 mph 1008.7mb 63f 75f
12:24am 8 10 mph 1008.7mb 62f 75f
12:18am 7 11 mph 1008.6mb 62f 76f
12:12am 8 11 mph 1008.5mb 62f 75f
12:06am 7 11 mph 1008.5mb 62f 75f
12:00am 7 10 mph 1008.5mb 62f 75f
Fri 07/21 11:54pm 6 11 mph 1008.5mb 62f 75f
11:48pm 7 10 mph 1008.5mb 62f 76f
11:42pm 7 10 mph 1008.5mb 62f 76f
11:36pm 7 10 mph 1008.4mb 62f 76f
11:30pm 8 10 mph 1008.4mb 62f 76f
11:24pm 7 9 mph 1008.4mb 62f 76f
11:18pm 6 9 mph 1008.4mb 62f 76f
11:12pm 6 10 mph 1008.3mb 62f 76f
11:06pm 6 7 mph 1008.3mb 61f 76f
11:00pm 5 8 mph 1008.4mb 61f 76f
10:54pm 6 8 mph 1008.3mb 62f 76f
10:48pm 5 8 mph 1008.3mb 62f 76f
10:42pm 5 7 mph 1008.4mb 62f 76f
10:36pm 5 8 mph 1008.5mb 62f 76f
10:30pm 5 7 mph 1008.5mb 62f 75f
10:24pm 5 8 mph 1008.5mb 62f 75f
10:18pm 5 7 mph 1008.5mb 61f 75f
10:12pm 5 6 mph 1008.5mb 61f 76f
10:06pm 5 6 mph 1008.6mb 61f 76f
10:00pm 3 5 mph 1008.6mb 61f 76f
9:54pm 3 5 mph 1008.6mb 61f 76f
9:48pm 3 6 mph 1008.6mb 61f 76f
9:42pm 3 5 mph 1008.5mb 62f 76f
9:36pm 3 5 mph 1008.4mb 62f 76f
9:30pm 3 5 mph 1008.4mb 62f 75f
9:24pm 3 3 mph 1008.5mb 62f 74f
9:18pm 2 2 mph 1008.5mb 62f 75f
9:12pm 1 2 mph 1008.5mb 61f 74f
9:06pm 1 2 mph 1008.5mb 60f 74f
9:00pm  -  2 mph 1008.5mb 60f 76f
8:54pm 2 3 mph 1008.4mb 60f 79f
8:48pm 2 2 mph 1008.3mb 61f 80f
8:42pm 2 3 mph 1008.2mb 61f 80f
8:36pm 2 3 mph 1008.1mb 61f 81f
8:30pm 3 5 mph 1008.1mb 61f 81f
8:24pm 3 5 mph 1008.1mb 62f 82f
8:18pm 5 7 mph 1008.1mb 62f 82f
8:12pm 5 8 mph 1008.1mb 62f 82f
8:06pm 6 7 mph 1008.1mb 62f 82f
8:00pm 5 8 mph 1008.1mb 62f 83f
7:48pm 6 7 mph 1008.1mb 63f 84f
7:42pm 5 8 mph 1008.1mb 63f 84f
7:36pm 6 8 mph 1008mb 63f 85f
7:30pm 6 10 mph 1008mb 64f 85f
7:24pm 5 10 mph 1007.9mb 64f 85f
7:18pm 5 8 mph 1007.8mb 64f 86f
7:12pm 5 10 mph 1007.8mb 65f 87f
7:06pm 6 10 mph 1007.8mb 65f 87f
7:00pm 3 7 mph 1007.7mb 66f 87f
6:54pm 3 8 mph 1007.6mb 67f 87f
6:48pm 6 8 mph 1007.6mb 67f 87f
6:42pm 6 8 mph 1007.7mb 67f 87f
6:36pm 6 8 mph 1007.5mb 68f 87f
6:30pm 7 10 mph 1007.3mb 68f 87f
6:24pm 3 9 mph 1007.3mb 69f 87f
6:18pm 6 10 mph 1007.3mb 71f 87f
6:12pm 5 9 mph 1007.2mb 71f 87f
6:06pm 6 10 mph 1007.2mb 71f 87f
6:00pm 8 13 mph 1007mb 72f 87f
5:48pm 5 8 mph 1007.2mb 72f 88f
5:42pm 8 14 mph 1007.4mb 72f 88f
5:36pm 6 10 mph 1007.4mb 71f 88f
5:30pm 9 11 mph 1007.4mb 71f 88f
5:24pm 3 11 mph 1007.3mb 71f 84f
5:18pm 2 11 mph 1007.3mb 71f 83f
5:12pm 7 13 mph 1007.3mb 71f -
5:06pm 11 15 mph 1007.2mb 71f -
5:00pm 8 13 mph 1007.3mb 71f 77f
4:54pm 13 16 mph 1007.5mb 71f 75f
4:48pm 15 20 mph 1007.5mb 71f 75f
4:42pm 17 21 mph 1007.6mb 71f 74f
4:36pm 14 20 mph 1007.5mb 71f 75f
4:30pm 15 20 mph 1007.6mb 71f 76f
4:24pm 14 20 mph 1007.6mb 71f 76f
4:18pm 20 22 mph 1007.5mb 71f 75f
4:12pm 17 21 mph 1007.6mb 71f 76f
4:06pm 21 24 mph 1007.7mb 71f 76f
4:00pm 22 28 mph 1007.6mb 71f 78f
3:54pm 18 24 mph 1007.7mb 70f 76f
3:48pm 21 24 mph 1007.8mb 70f 76f
3:42pm 18 22 mph 1007.8mb 70f 76f
3:36pm 17 21 mph 1007.7mb 70f 76f
3:30pm 17 22 mph 1007.9mb 69f 76f
3:24pm 17 22 mph 1008.2mb 69f 75f
3:18pm 17 22 mph 1008.2mb 69f 75f
3:12pm 17 21 mph 1007.9mb 69f 74f
3:06pm 18 22 mph 1008mb 69f 75f
3:00pm 17 21 mph 1008.3mb 68f 75f
2:54pm 16 22 mph 1008.3mb 68f 75f
2:48pm 18 22 mph 1008.3mb 68f 76f
2:42pm 18 21 mph 1008.3mb 68f 76f
2:36pm 15 21 mph 1008.5mb 67f 76f
2:30pm 14 20 mph 1008.5mb 67f 75f
2:24pm 11 17 mph 1008.7mb 67f 75f
2:18pm 15 18 mph 1008.7mb 67f 75f
2:12pm 17 21 mph 1008.7mb 66f 75f
2:06pm 14 18 mph 1008.8mb 66f 74f
2:00pm 17 21 mph 1009mb 66f 75f
1:54pm 16 20 mph 1009mb 65f 76f
1:48pm 14 17 mph 1009mb 65f 75f
1:42pm 14 17 mph 1009.1mb 65f 75f
1:36pm 13 16 mph 1009.2mb 65f 75f
1:30pm 14 17 mph 1009.4mb 65f 75f
1:24pm 15 18 mph 1009.5mb 65f 75f
1:18pm 15 17 mph 1009.5mb 65f 75f
1:12pm 14 17 mph 1009.6mb 65f 75f
1:06pm 16 18 mph 1009.6mb 65f 76f
1:00pm 14 18 mph 1009.7mb 64f 76f
12:54pm 15 17 mph 1009.7mb 64f 76f
12:48pm 15 16 mph 1009.7mb 64f 76f
12:42pm 14 15 mph 1009.8mb 64f 75f
12:36pm 13 15 mph 1009.9mb 63f 75f
12:30pm 13 14 mph 1009.9mb 63f 75f
12:24pm 11 14 mph 1009.9mb 63f 75f
12:18pm 11 13 mph 1010mb 63f 76f
12:12pm 13 14 mph 1009.9mb 62f 77f
12:06pm 11 14 mph 1009.9mb 62f 77f
12:00pm 10 11 mph 1009.9mb 62f 77f
11:54am 10 11 mph 1009.9mb 62f 77f
11:48am 9 9 mph 1009.8mb 62f 78f
11:42am 8 9 mph 1009.8mb 62f 78f
11:36am 8 9 mph 1009.9mb 62f 78f
11:30am 7 8 mph 1010mb 62f 78f
11:24am 7 8 mph 1010.1mb 62f 79f
11:18am 6 9 mph 1010.2mb 62f 78f
11:12am 8 8 mph 1010.2mb 61f 79f
11:06am 7 8 mph 1010.3mb 61f 79f
11:00am 3 7 mph 1010.3mb 61f 81f
10:54am 2 5 mph 1010.3mb 61f 82f
10:48am 3 6 mph 1010.6mb 61f 81f
10:42am 5 7 mph 1010.7mb 61f 81f
10:36am 6 7 mph 1010.6mb 61f 80f
10:30am 6 8 mph 1010.6mb 61f 80f
10:24am 5 7 mph 1010.6mb 61f 79f
10:18am 5 7 mph 1010.6mb 61f 79f
10:12am 5 8 mph 1010.7mb 61f 79f
10:06am 3 5 mph 1010.8mb 61f 79f
10:00am 3 6 mph 1010.8mb 61f 78f
9:54am 5 7 mph 1010.7mb 61f 78f
9:48am 3 8 mph 1010.6mb 61f 78f
9:42am 8 8 mph 1010.6mb 61f 77f
9:36am 5 8 mph 1010.5mb 61f 77f
9:30am 6 9 mph 1010.4mb 61f 76f
9:24am 6 8 mph 1010.4mb 61f 76f
9:18am 6 8 mph 1010.3mb 61f 76f
9:12am 5 7 mph 1010.3mb 61f 76f
9:06am 7 8 mph 1010.3mb 61f 76f
9:00am 6 7 mph 1010.3mb 61f 75f
8:54am 7 9 mph 1010.2mb 61f 75f
8:48am 7 9 mph 1010.2mb 60f 74f
8:42am 7 9 mph 1010.2mb 60f 74f
8:36am 7 9 mph 1010.2mb 60f 74f
8:30am 7 9 mph 1010.2mb 60f 74f
8:24am 6 7 mph 1010.3mb 61f 74f
8:18am 3 8 mph 1010.2mb 61f 73f
8:12am 6 7 mph 1010.2mb 61f 73f
8:06am 7 9 mph 1010.2mb 61f 72f
8:00am 6 7 mph 1010.2mb 61f 72f
7:54am 6 8 mph 1010.2mb 61f 72f
7:48am 6 9 mph 1010.2mb 61f 71f
7:42am 6 8 mph 1010.2mb 62f 71f
7:36am 6 8 mph 1010.2mb 62f 71f
7:30am 5 10 mph 1010.1mb 62f 71f
7:24am 7 10 mph 1010.2mb 63f 70f
7:18am 5 8 mph 1010.2mb 63f 70f
7:12am 5 8 mph 1010.1mb 63f 70f
7:06am 6 8 mph 1010.1mb 63f 70f
7:00am 6 9 mph 1010.1mb 63f 69f
6:54am 5 8 mph 1010.1mb 63f 69f
6:48am 6 9 mph 1010.1mb 63f 69f
6:42am 6 9 mph 1010.1mb 63f 69f
6:36am 6 9 mph 1010.1mb 64f 68f
6:30am 6 9 mph 1010.1mb 65f 68f
6:24am 5 8 mph 1010mb 65f 68f
6:18am 6 11 mph 1010mb 66f 68f
6:12am 6 9 mph 1010mb 67f 68f
6:06am 6 9 mph 1010mb 68f 68f
6:00am 7 14 mph 1010mb 68f 68f
5:54am 7 11 mph 1010mb 68f 68f
5:48am 9 11 mph 1009.9mb 68f 68f
5:42am 7 11 mph 1009.8mb 68f 68f
5:36am 8 10 mph 1009.8mb 68f 68f
5:30am 8 10 mph 1009.7mb 68f 68f
5:24am 8 11 mph 1009.7mb 68f 68f
5:18am 9 13 mph 1009.6mb 68f 68f
5:12am 8 11 mph 1009.6mb 68f 68f
5:06am 8 10 mph 1009.6mb 68f 68f
5:00am 6 9 mph 1009.6mb 68f 68f
4:54am 6 9 mph 1009.6mb 68f 68f
4:48am 6 9 mph 1009.5mb 68f 68f
4:42am 7 10 mph 1009.4mb 68f 68f
4:36am 7 10 mph 1009.4mb 68f 68f
4:30am 7 11 mph 1009.4mb 68f 69f
4:24am 7 10 mph 1009.3mb 68f 69f
4:18am 8 10 mph 1009.3mb 68f 69f
4:12am 7 9 mph 1009.2mb 68f 69f
4:06am 6 8 mph 1009.3mb 68f 69f
4:00am 7 10 mph 1009.2mb 68f 69f
3:54am 7 10 mph 1009.2mb 68f 69f
3:48am 7 10 mph 1009.1mb 68f 69f
3:42am 7 9 mph 1009.1mb 68f 69f
3:36am 7 9 mph 1009mb 68f 69f
3:30am 6 9 mph 1009mb 68f 69f
3:24am 7 9 mph 1009mb 68f 68f
3:18am 7 10 mph 1009mb 68f 69f
3:12am 7 10 mph 1009mb 68f 69f
3:06am 8 11 mph 1009mb 68f 69f
3:00am 7 10 mph 1008.9mb 68f 69f
2:54am 7 9 mph 1008.9mb 68f 68f
2:48am 7 9 mph 1008.9mb 68f -
2:42am 5 7 mph 1009mb 68f -
2:36am 3 7 mph 1009mb 68f -
2:30am 3 5 mph 1009mb 67f 67f
2:24am 2 3 mph 1009mb 67f 67f
2:18am 2 6 mph 1009mb 67f 67f
2:12am 3 6 mph 1009mb 67f 67f
2:06am 3 5 mph 1009mb 67f 68f
2:00am 5 5 mph 1009.1mb 67f 68f
1:54am 1 2 mph 1009.1mb 67f 68f
1:48am 1 2 mph 1009.2mb - -
1:42am  -  1 mph 1009.2mb - -
1:36am 1 2 mph 1009.3mb - -
1:30am  -  6 mph 1009.3mb 67f 70f
1:24am 3 6 mph 1009.3mb 66f 70f
1:18am 5 9 mph 1009.3mb 66f 70f
1:12am 6 8 mph 1009.3mb 66f 70f
1:06am 5 8 mph 1009.2mb 66f 70f
1:00am 6 8 mph 1009.3mb 66f 70f
12:54am 6 8 mph 1009.3mb 66f 71f
12:48am 5 8 mph 1009.3mb 65f 71f
12:42am 7 10 mph 1009.3mb 65f 71f
12:36am 8 10 mph 1009.3mb 66f 70f
12:30am 7 9 mph 1009.4mb 66f 70f
12:24am 6 8 mph 1009.4mb 66f 70f
12:18am 7 9 mph 1009.5mb 66f 70f
12:12am 7 10 mph 1009.5mb 65f 70f
12:06am 6 8 mph 1009.5mb 65f 70f
12:00am 7 9 mph 1009.5mb 65f 70f
Thu 07/20 11:54pm 7 9 mph 1009.5mb 65f 70f
11:48pm 7 9 mph 1009.5mb 65f 70f
11:42pm 6 8 mph 1009.5mb 65f 70f
11:36pm 6 8 mph 1009.6mb 65f 70f
11:30pm 5 7 mph 1009.5mb 65f 70f
11:24pm 6 8 mph 1009.5mb 65f 71f
11:18pm 6 9 mph 1009.6mb 65f 71f
11:12pm 6 9 mph 1009.6mb 65f 70f
11:06pm 6 8 mph 1009.7mb 65f 70f
11:00pm 6 8 mph 1009.7mb 65f 70f
10:54pm 5 8 mph 1009.7mb 64f 70f
10:48pm 7 9 mph 1009.8mb 64f 70f
10:42pm 7 9 mph 1009.8mb 64f 70f
10:36pm 5 7 mph 1009.8mb 64f 70f
10:30pm 3 6 mph 1009.8mb 65f 70f
10:24pm 3 6 mph 1009.8mb 65f 70f
10:18pm 3 6 mph 1009.8mb 65f 70f
10:12pm 5 6 mph 1009.8mb 65f 70f
10:06pm 5 6 mph 1009.9mb 65f 70f
10:00pm 2 3 mph 1009.9mb 64f 71f
9:54pm 1 3 mph 1009.9mb 64f 71f
9:48pm 1 2 mph 1009.9mb 64f 71f
9:42pm 2 3 mph 1009.9mb 65f 71f
9:36pm 2 3 mph 1010mb 65f 71f
9:30pm 3 5 mph 1009.9mb 65f 71f
9:24pm 3 5 mph 1010mb 65f 70f
9:18pm 3 5 mph 1010.1mb 65f 69f
9:12pm 5 6 mph 1010.1mb 65f 70f
9:06pm 5 8 mph 1010.2mb 65f 70f
9:00pm 8 9 mph 1010.2mb 65f 70f
8:54pm 7 7 mph 1010.1mb 65f 70f
8:48pm 6 7 mph 1010.1mb 65f 70f
8:42pm 6 7 mph 1010.1mb 65f 71f
8:36pm 6 7 mph 1010.2mb 65f 71f
8:30pm 5 7 mph 1010.1mb 65f 71f
8:24pm 7 8 mph 1010.2mb 65f 71f
8:18pm 6 7 mph 1010.2mb 65f 70f
8:12pm 6 7 mph 1010.3mb 65f 71f
8:06pm 6 6 mph 1010.3mb 64f 71f
8:00pm 6 7 mph 1010.4mb 64f 71f
7:54pm 6 7 mph 1010.6mb 64f 71f
7:48pm 6 7 mph 1010.5mb 64f 71f
7:42pm 6 7 mph 1010.4mb 64f 71f
7:36pm 6 7 mph 1010.4mb 64f 71f
7:30pm 5 7 mph 1010.4mb 64f 72f
7:24pm 5 7 mph 1010.4mb 64f 72f
7:18pm 5 8 mph 1010.3mb 64f 72f
7:12pm 7 11 mph 1010.2mb 64f 72f
7:06pm 9 11 mph 1010mb 64f 71f
7:00pm 11 14 mph 1009.9mb 64f 72f
6:54pm 9 11 mph 1010mb 64f 71f
6:48pm 11 14 mph 1010.1mb 64f 71f
6:42pm 8 11 mph 1010.2mb 64f 71f
6:36pm 6 8 mph 1010.2mb 64f 71f
6:30pm 6 9 mph 1010.1mb 65f 71f
6:24pm 7 9 mph 1010.1mb 65f 71f
6:18pm 5 6 mph 1010.1mb 65f 71f
6:12pm 2 5 mph 1010mb 66f 71f
6:06pm 1 5 mph 1009.8mb 67f 71f
6:00pm 2 5 mph 1009.9mb 67f 72f
5:54pm 3 6 mph 1009.7mb 68f 71f
5:48pm 5 6 mph 1009.6mb 69f 71f
5:42pm 5 8 mph 1009.8mb 69f 70f
5:36pm 3 9 mph 1010.1mb 69f 70f
5:30pm 6 10 mph 1010.3mb 70f 70f
5:24pm 7 9 mph 1010.6mb 71f 71f
5:18pm 6 8 mph 1010.7mb 71f 71f
5:12pm 5 10 mph 1011.4mb 72f 71f
5:06pm 10 14 mph 1011.1mb 72f 72f
5:00pm 11 20 mph 1011.1mb 72f 72f
4:54pm 18 22 mph 1010.9mb 72f 73f
4:48pm 16 18 mph 1011mb 72f 76f
4:42pm 2 14 mph 1011.5mb 72f 77f
4:36pm 13 20 mph 1010.7mb 72f 79f
4:30pm 7 13 mph 1010.6mb 72f 79f
4:24pm 9 15 mph 1010mb 72f 78f
4:18pm 13 16 mph 1010.3mb 72f 78f
4:12pm 15 16 mph 1010.3mb 72f 78f
4:06pm 14 18 mph 1010.3mb 71f 79f
4:00pm 17 21 mph 1010.4mb 71f 77f
3:54pm 18 22 mph 1010.4mb 71f 77f
3:48pm 20 22 mph 1010.4mb 71f 77f
3:42pm 18 23 mph 1010.4mb 71f 77f
3:36pm 18 22 mph 1010.5mb 71f 77f
3:30pm 16 20 mph 1010.6mb 71f 78f
3:24pm 17 18 mph 1010.6mb 71f 79f
3:18pm 15 18 mph 1010.6mb 71f 79f
3:12pm 16 18 mph 1010.6mb 71f 77f
3:06pm 16 20 mph 1010.7mb 71f 76f
3:00pm 17 20 mph 1010.7mb 71f 76f
2:54pm 16 20 mph 1010.6mb 71f 76f
2:48pm 13 16 mph 1010.7mb 71f 79f
2:42pm 14 17 mph 1010.7mb 71f 80f
2:36pm 15 21 mph 1010.6mb 70f 79f
2:30pm 17 20 mph 1010.8mb 70f 78f
2:24pm 14 18 mph 1010.9mb 70f 81f
2:18pm 8 10 mph 1010.9mb 70f 82f
2:12pm 6 8 mph 1011mb 70f 81f
2:06pm 6 8 mph 1011mb 70f 81f
2:00pm 5 6 mph 1011.1mb 70f 81f
1:54pm 3 7 mph 1011.3mb 70f 82f
1:48pm 3 3 mph 1011.3mb 70f 81f
1:42pm 2 3 mph 1011.3mb 69f 78f
1:36pm 2 8 mph 1011.2mb 69f 79f
1:30pm 6 8 mph 1011.3mb 69f 78f
1:24pm 3 6 mph 1011.6mb 69f 78f
1:18pm 6 7 mph 1011.7mb 69f 76f
1:12pm 6 8 mph 1011.9mb 69f 74f
1:06pm 6 9 mph 1012mb 68f 75f
1:00pm 8 10 mph 1011.9mb 68f 74f
12:54pm 6 10 mph 1012mb 68f 76f
12:48pm 7 9 mph 1012mb 68f 75f
12:42pm 8 10 mph 1012.2mb 68f 76f
12:36pm 5 9 mph 1012.5mb 68f 77f
12:30pm 7 10 mph 1012.5mb 67f 77f
12:24pm 6 8 mph 1012.6mb 67f 79f
12:18pm 9 9 mph 1012.5mb 67f 79f
12:12pm 6 8 mph 1012.6mb 67f 79f
12:06pm 9 10 mph 1012.8mb 67f 79f
12:00pm 8 10 mph 1012.9mb 67f 78f
11:54am 8 10 mph 1012.8mb 66f 77f
11:48am 8 10 mph 1012.9mb 66f 77f
11:42am 9 13 mph 1013.1mb 66f 76f
11:36am 9 11 mph 1013.2mb 66f 77f
11:30am 11 13 mph 1013.3mb 66f 77f
11:24am 9 11 mph 1013.3mb 66f 78f
11:18am 8 11 mph 1013.2mb 66f 79f
11:12am 8 10 mph 1013.1mb 65f 79f
11:06am 7 8 mph 1013.1mb 65f 80f
11:00am 7 8 mph 1013.1mb 65f 79f
10:54am 7 8 mph 1013.1mb 65f 80f
10:48am 6 7 mph 1013.1mb 65f 79f
10:42am 6 8 mph 1013.2mb 64f 79f
10:36am 3 5 mph 1013.2mb 64f 78f
10:30am 3 6 mph 1013.2mb 64f 79f
10:24am 5 6 mph 1013.2mb 64f 78f
10:18am 6 8 mph 1013.2mb 64f 78f
10:12am 2 6 mph 1013.1mb 64f 80f
10:06am 1 2 mph 1013.1mb 63f 82f
10:00am 3 6 mph 1013.1mb 63f 81f
9:54am 5 6 mph 1013.1mb 63f 82f
9:48am  -  5 mph 1013.1mb 63f 82f
9:42am 3 5 mph 1013.1mb 63f 81f
9:36am 3 6 mph 1013.1mb 62f 81f
9:30am 3 6 mph 1013.1mb 62f 81f
9:24am 5 7 mph 1013.2mb 62f 80f
9:18am 5 7 mph 1013.2mb 62f 80f
9:12am 6 8 mph 1013.3mb 62f 80f
9:06am 6 9 mph 1013.2mb 62f 80f
9:00am 7 9 mph 1013.3mb 63f 79f
8:54am 6 10 mph 1013.5mb 63f 79f
8:48am 7 9 mph 1013.6mb 63f 78f
8:42am 6 11 mph 1013.6mb 64f 78f
8:36am 7 10 mph 1013.7mb 64f 78f
8:30am 7 8 mph 1013.7mb 64f 78f
8:24am 6 10 mph 1013.6mb 64f 78f
8:18am 8 10 mph 1013.6mb 64f 78f
8:12am 5 8 mph 1013.6mb 64f 78f
8:06am 6 8 mph 1013.7mb 64f 77f
8:00am 5 8 mph 1013.7mb 64f 77f
7:54am 5 8 mph 1013.7mb 64f 77f
7:48am 6 8 mph 1013.7mb 64f 76f
7:42am 6 9 mph 1013.7mb 65f 76f
7:36am 6 8 mph 1013.8mb 64f 76f
7:30am 6 9 mph 1013.8mb 64f 76f
7:24am 6 9 mph 1013.9mb 65f 75f
7:18am 6 9 mph 1013.9mb 65f 75f
7:12am 6 10 mph 1013.7mb 65f 74f
7:06am 8 10 mph 1013.7mb 65f 74f
7:00am 7 10 mph 1013.5mb 65f 74f
6:54am 7 11 mph 1013.5mb 65f 74f
6:48am 7 10 mph 1013.5mb 65f 73f
6:42am 8 10 mph 1013.4mb 65f 73f
6:36am 8 11 mph 1013.4mb 65f 73f
6:30am 8 13 mph 1013.5mb 65f 73f
6:24am 7 9 mph 1013.4mb 66f 73f
6:18am 6 10 mph 1013.3mb 66f 73f
6:12am 6 9 mph 1013.3mb 66f 73f
6:06am 6 9 mph 1013.2mb 66f 73f
6:00am 6 9 mph 1013.2mb 66f 72f
5:54am 6 9 mph 1013.2mb 66f 71f
5:48am 3 6 mph 1013.2mb 66f 70f
5:42am 1 5 mph 1013.1mb 66f 69f
5:36am 1 2 mph 1013.2mb 66f 69f
5:30am 1 3 mph 1013.1mb 67f 69f
5:24am 3 6 mph 1013mb 68f 69f
5:18am 1 2 mph 1013.1mb 69f 67f
5:12am  -  1 mph 1013.1mb 69f 67f
5:06am 1 2 mph 1013mb 69f 67f
5:00am 2 3 mph 1013.1mb 69f 66f
4:54am 1 2 mph 1013.2mb 69f 67f
4:48am  -  1 mph 1013.2mb 69f 67f
4:42am  -  2 mph 1013.1mb 69f 67f
4:36am 1 2 mph 1013.2mb 69f 67f
4:30am 2 2 mph 1013.3mb 69f 67f
4:24am 2 2 mph 1013.2mb 69f 68f
4:18am  -  1 mph 1012.8mb 69f 69f
4:12am  -  2 mph 1012.7mb 69f 69f
4:06am 1 2 mph 1012.7mb 69f 69f
4:00am 2 3 mph 1012.8mb 69f 70f
3:54am 3 3 mph 1012.9mb 69f 69f
3:48am  -  1 mph 1013.1mb 69f 69f
3:42am  -  1 mph 1013.1mb 69f 69f
3:36am 1 2 mph 1013.2mb 69f 69f
3:30am 2 3 mph 1013.1mb 69f 69f
3:24am 2 2 mph 1013.1mb 69f 70f
3:18am 1 2 mph 1013mb 69f 69f
3:12am 1 2 mph 1013.1mb 69f 68f
3:06am  -  1 mph 1013mb 69f 70f
3:00am  -  2 mph 1013mb 69f 71f
2:54am 2 3 mph 1013mb 69f 70f
2:48am  -  2 mph 1013.3mb 69f 71f
2:42am  -  2 mph 1013.4mb 69f 71f
2:36am 1 5 mph 1013.4mb 69f 71f
2:30am 1 2 mph 1013.4mb 69f 71f
2:24am 2 2 mph 1013.3mb 68f 71f
2:18am 2 3 mph 1013.4mb 68f 71f
2:12am  -  2 mph 1013.5mb 68f 71f
2:06am 1 2 mph 1013.5mb 68f 71f
2:00am  -  3 mph 1013.5mb 68f 71f
1:54am 2 5 mph 1013.7mb 68f 71f
1:48am 2 3 mph 1013.7mb 68f 71f
1:42am  -  1 mph 1013.8mb 68f 71f
1:36am  -  3 mph 1013.7mb 68f 71f
1:30am 1 2 mph 1013.7mb 68f 71f
1:24am 2 3 mph 1013.7mb 68f 71f
1:18am 2 2 mph 1013.6mb 67f 71f
1:12am 2 6 mph 1013.6mb 67f 70f
1:06am 3 6 mph 1013.5mb 67f 72f
1:00am 3 6 mph 1013.4mb 67f 71f
12:54am 2 5 mph 1013.4mb 67f 72f
12:48am 3 5 mph 1013.5mb 67f 72f
12:42am 2 2 mph 1013.5mb 67f 71f
12:36am 1 1 mph 1013.6mb 67f 71f
12:30am  -  2 mph 1013.6mb 67f 71f
12:24am 2 3 mph 1013.6mb 67f 71f
12:18am 3 3 mph 1013.7mb 66f 71f
12:12am 2 2 mph 1013.9mb 66f 71f
12:06am 1 2 mph 1013.9mb 66f 72f
12:00am 1 2 mph 1013.9mb 66f 72f
Wed 07/19 11:54pm 1 3 mph 1013.9mb 66f 72f
11:48pm 2 2 mph 1013.8mb 66f 72f
11:42pm  -  1 mph 1013.7mb 66f 72f
11:36pm  -  1 mph 1013.6mb 67f 72f
11:30pm  -  1 mph 1013.7mb 67f 71f
11:24pm 1 1 mph 1013.7mb 67f 71f
11:18pm  -  1 mph 1013.7mb 66f 71f
11:12pm  -  2 mph 1013.6mb 66f 71f
11:06pm 1 1 mph 1013.8mb 66f 72f
11:00pm  -  2 mph 1013.7mb 66f 72f
10:54pm 2 5 mph 1013.8mb 66f 72f
10:48pm 2 5 mph 1013.9mb 65f 72f
10:42pm 1 2 mph 1013.7mb 65f 71f
10:36pm  -  1 mph 1013.8mb 65f 71f
10:30pm  -  1 mph 1013.8mb 65f 71f
10:24pm 1 2 mph 1013.9mb 65f 71f
10:18pm 2 5 mph 1013.8mb 65f 70f
10:12pm 1 2 mph 1013.8mb 65f 70f
10:06pm  -  1 mph 1013.8mb 64f 70f
10:00pm  -  1 mph 1013.9mb 64f 70f
9:54pm  -  1 mph 1013.9mb 64f 70f
9:48pm  -  1 mph 1013.8mb 64f 70f
9:42pm  -  2 mph 1013.7mb 64f 70f
9:36pm  -  1 mph 1013.6mb 64f 70f
9:30pm  -  1 mph 1013.6mb 63f 70f
9:24pm  -  1 mph 1013.6mb 63f 70f
9:18pm  -  1 mph 1013.6mb 63f 70f
9:12pm  -  1 mph 1013.5mb 63f 70f
9:06pm  -  1 mph 1013.5mb 62f 70f
9:00pm  -  1 mph 1013.5mb 62f 70f
8:54pm 1 1 mph 1013.5mb 62f 70f
8:48pm  -  1 mph 1013.5mb 62f 70f
8:42pm  -  1 mph 1013.3mb 62f 70f
8:36pm 1 1 mph 1013.2mb 63f 70f
8:30pm  -  1 mph 1013mb 64f 70f
8:24pm  -  1 mph 1013mb 64f 70f
8:18pm  -  1 mph 1012.9mb 64f 70f
8:12pm  -  2 mph 1012.9mb 64f 70f
8:06pm 2 3 mph 1012.9mb 64f 70f
8:00pm 1 2 mph 1013mb 64f 70f
7:54pm 1 1 mph 1013mb 64f 70f
7:48pm  -  2 mph 1013mb 63f 71f
7:42pm 2 3 mph 1013mb 64f 71f
7:36pm 2 3 mph 1013mb 64f 71f
7:30pm 2 3 mph 1013mb 64f 71f
7:24pm 2 2 mph 1012.9mb 64f 71f
7:18pm 2 3 mph 1012.9mb 65f 71f
7:12pm 2 3 mph 1013mb 64f 71f
7:06pm 3 3 mph 1012.9mb 65f 72f
7:00pm 2 5 mph 1012.8mb 64f 71f
6:54pm 3 5 mph 1012.9mb 64f 71f
6:48pm 3 5 mph 1012.9mb 64f 71f
6:42pm 5 5 mph 1012.9mb 65f 71f
6:36pm 2 3 mph 1012.9mb 65f 71f
6:30pm 3 5 mph 1012.9mb 65f 71f
6:24pm 3 5 mph 1012.9mb 65f 71f
6:18pm 3 6 mph 1013mb 65f 71f
6:12pm 5 6 mph 1012.9mb 65f 71f
6:06pm 3 5 mph 1012.9mb 65f 71f
6:00pm 3 6 mph 1013mb 65f 71f
5:54pm 5 6 mph 1013mb 65f 71f
5:48pm 5 6 mph 1013mb 65f 71f
5:42pm 5 6 mph 1012.9mb 66f 71f
5:36pm 5 5 mph 1012.8mb 66f 71f
5:30pm 5 6 mph 1012.8mb 66f 70f
5:24pm 5 7 mph 1012.9mb 67f 70f
5:18pm 5 6 mph 1013mb 67f 70f
5:12pm 5 6 mph 1013mb 67f 70f
5:06pm 5 7 mph 1013.1mb 67f 70f
5:00pm 6 7 mph 1013.1mb 67f 71f
4:54pm 3 6 mph 1013.2mb 67f 71f
4:48pm 2 6 mph 1013.3mb 67f 71f
4:42pm 5 6 mph 1013.4mb 67f 70f
4:36pm 5 6 mph 1013.4mb 67f 69f
4:30pm 5 6 mph 1013.4mb 68f 69f
4:24pm 5 6 mph 1013.4mb 69f 69f
4:18pm 3 6 mph 1013.4mb 69f 69f
4:12pm 5 6 mph 1013.5mb 69f 69f
4:06pm 3 6 mph 1013.5mb 69f 70f
4:00pm 5 7 mph 1013.5mb 69f 69f
3:54pm 5 7 mph 1013.5mb 69f 69f
3:48pm 6 7 mph 1013.6mb 69f 69f
3:42pm 6 7 mph 1013.6mb 69f 69f
3:36pm 6 7 mph 1013.7mb 69f 69f
3:30pm 7 8 mph 1013.8mb 69f 69f
3:24pm 6 7 mph 1013.8mb 69f 69f
3:18pm 5 7 mph 1013.9mb 69f 69f
3:12pm 6 9 mph 1014mb 69f 69f
3:06pm 7 10 mph 1014mb 69f 69f
3:00pm 8 9 mph 1014mb 69f 69f
2:54pm 6 8 mph 1014.1mb 69f 69f
2:48pm 6 8 mph 1014.2mb 68f 69f
2:42pm 7 9 mph 1014.3mb 68f 69f
2:36pm 6 8 mph 1014.4mb 68f 69f
2:30pm 6 8 mph 1014.3mb 68f 68f
2:24pm 7 8 mph 1014.3mb 68f 68f
2:18pm 6 9 mph 1014.4mb 68f 68f
2:12pm 7 9 mph 1014.5mb 68f 68f
2:06pm 7 8 mph 1014.7mb 68f 68f
2:00pm 7 9 mph 1014.7mb 68f 68f
1:54pm 8 10 mph 1014.8mb 68f 68f
1:48pm 8 10 mph 1014.8mb 68f 68f
1:42pm 8 10 mph 1014.9mb 68f 68f
1:36pm 7 9 mph 1014.9mb 68f 68f
1:30pm 8 9 mph 1015.1mb 68f 68f
1:24pm 7 8 mph 1015.2mb 68f 68f
1:18pm 7 9 mph 1015.2mb 68f 67f
1:12pm 7 9 mph 1015.3mb 68f 67f
1:06pm 7 10 mph 1015.3mb 67f 67f
1:00pm 9 10 mph 1015.5mb 67f 67f
12:54pm 9 10 mph 1015.5mb 67f 67f
12:48pm 9 13 mph 1015.6mb 67f 67f
12:42pm 9 11 mph 1015.6mb 67f 67f
12:36pm 10 11 mph 1015.7mb 67f 67f
12:30pm 8 10 mph 1015.7mb 67f 67f
12:24pm 8 10 mph 1015.7mb 66f 67f
12:18pm 8 10 mph 1015.8mb 66f 67f
12:12pm 8 10 mph 1015.8mb 66f 67f
12:06pm 8 9 mph 1015.8mb 66f 67f
12:00pm 7 9 mph 1015.9mb 66f 67f
11:54am 7 10 mph 1016mb 66f 67f
11:48am 8 10 mph 1016mb 66f 67f
11:42am 7 7 mph 1016mb 66f 67f
11:36am 6 8 mph 1016.1mb 65f 67f
11:30am 7 8 mph 1016.1mb 65f 67f
11:24am 7 8 mph 1016.2mb 65f 67f
11:18am 6 8 mph 1016.3mb 65f 67f
11:12am 7 8 mph 1016.4mb 65f 67f
11:06am 6 8 mph 1016.3mb 65f 67f
11:00am 6 7 mph 1016.5mb 65f 67f
10:54am 7 8 mph 1016.5mb 65f 67f
10:48am 7 8 mph 1016.5mb 64f 67f
10:42am 7 9 mph 1016.6mb 64f 67f
10:36am 7 9 mph 1016.6mb 64f 67f
10:30am 7 8 mph 1016.6mb 64f 67f
10:24am 7 8 mph 1016.6mb 64f 67f
10:18am 7 8 mph 1016.6mb 64f 67f
10:12am 8 8 mph 1016.7mb 64f 67f
10:06am 6 8 mph 1016.6mb 64f 67f
10:00am 6 7 mph 1016.6mb 63f 67f
9:54am 6 8 mph 1016.7mb 63f 67f
9:48am 7 8 mph 1016.7mb 63f 67f
9:42am 7 8 mph 1016.8mb 63f 67f
9:36am 7 8 mph 1016.7mb 63f 67f
9:30am 7 8 mph 1016.7mb 62f 67f
9:24am 7 8 mph 1016.7mb 62f 67f
9:18am 6 7 mph 1016.6mb 62f 67f
9:12am 5 8 mph 1016.7mb 62f 67f
9:06am 7 8 mph 1016.9mb 62f 67f
9:00am 6 6 mph 1016.9mb 62f 67f
8:54am 6 6 mph 1017mb 61f 67f
8:48am 6 7 mph 1017mb 61f 67f
8:42am 5 6 mph 1017mb 61f 67f
8:36am 5 6 mph 1016.9mb 61f 67f
8:30am 5 6 mph 1017.1mb 61f 67f
8:24am 5 5 mph 1017.1mb 61f 67f
8:18am 3 3 mph 1017mb 61f 67f
8:12am 2 3 mph 1017.1mb 61f 67f
8:06am 2 3 mph 1017.1mb 61f 67f
8:00am 3 5 mph 1017.1mb 61f 67f
7:54am 3 3 mph 1017.2mb 61f 67f
7:48am 2 3 mph 1017.2mb 61f 66f
7:42am 1 2 mph 1017.2mb 62f 67f
7:36am 2 3 mph 1017.1mb 62f 67f
7:30am 2 2 mph 1017.1mb 62f 67f
7:24am  -  1 mph 1017mb 63f 67f
7:18am 1 2 mph 1017mb 63f 67f
7:12am 2 3 mph 1017mb 63f 67f
7:06am  -  2 mph 1017mb 63f 67f
7:00am 2 3 mph 1017.1mb 63f 67f
6:54am 3 3 mph 1017.2mb 63f 66f
6:48am 1 2 mph 1017.2mb 63f 67f
6:42am 1 2 mph 1017.1mb 63f 67f
6:36am 1 2 mph 1017.1mb 63f 67f
6:30am 1 3 mph 1017.1mb 63f 67f
6:24am 3 5 mph 1017.1mb 63f 67f
6:18am 5 5 mph 1017mb 63f 67f
6:12am 3 5 mph 1017mb 63f 67f
6:06am 5 5 mph 1017mb 63f 66f
6:00am 5 5 mph 1017mb 63f 67f
5:54am 3 5 mph 1016.9mb 63f 66f
5:48am 3 3 mph 1016.9mb 63f 66f
5:42am 2 2 mph 1016.8mb 63f 66f
5:36am  -  2 mph 1016.8mb 63f 66f
5:30am 3 5 mph 1016.8mb 64f 67f
5:24am 5 5 mph 1016.9mb 64f 67f
5:18am 2 3 mph 1016.9mb 64f 67f
5:12am  -  3 mph 1016.9mb 64f 67f
5:06am 2 2 mph 1016.8mb 65f 67f
5:00am 1 2 mph 1016.9mb 65f 67f
4:54am  -  2 mph 1016.9mb 65f 67f
4:48am 1 2 mph 1017mb 66f 67f
4:42am 1 1 mph 1017mb 66f 67f
4:36am 1 2 mph 1017mb 67f 67f
4:30am 2 5 mph 1017mb 67f 67f
4:24am 3 3 mph 1017mb 68f 67f
4:18am 1 2 mph 1017mb 68f 67f
4:12am 1 2 mph 1017mb 68f 67f
4:06am 1 1 mph 1017mb 68f 67f
4:00am  -  1 mph 1017mb 68f 67f
3:54am  -  2 mph 1017mb 68f 67f
3:48am 1 2 mph 1017mb 68f 67f
3:42am 1 1 mph 1016.9mb 68f 67f
3:36am  -  1 mph 1017mb 68f 67f
3:30am 2 2 mph 1017mb 68f 67f
3:24am 2 2 mph 1017mb 68f 67f
3:18am 1 2 mph 1017mb 67f 67f
3:12am  -  2 mph 1017mb 68f 67f
3:06am  -  2 mph 1017mb 67f 67f
3:00am 2 3 mph 1016.9mb 67f 67f
2:54am 3 5 mph 1016.9mb 67f 67f
2:48am 3 6 mph 1016.8mb 67f -
2:42am 5 6 mph 1016.8mb 67f -
2:36am 6 7 mph 1016.9mb 67f -
2:30am 5 6 mph 1016.9mb 67f 67f
2:24am 5 5 mph 1017mb 67f 67f
2:18am 3 6 mph 1017.1mb 67f 67f
2:12am 5 6 mph 1017mb 67f 66f
2:06am 2 5 mph 1017mb 67f 66f
2:00am 2 3 mph 1017.1mb 67f 66f
1:54am 3 5 mph 1017.1mb 67f 66f
1:48am 3 3 mph - - -
1:42am 2 5 mph - - -
1:36am 3 5 mph - - -
1:30am 3 5 mph 1017.2mb 67f 66f
1:24am 1 2 mph 1017.3mb 67f 66f
1:18am 2 3 mph 1017.2mb 67f 66f
1:12am 2 3 mph 1017.3mb 67f 66f
1:06am 3 5 mph 1017.3mb 67f 66f
1:00am 2 2 mph 1017.2mb 66f 66f
12:54am 1 2 mph 1017.3mb 66f 66f
12:48am  -  1 mph 1017.3mb 66f 66f
12:42am  -  1 mph 1017.4mb 66f 66f
12:36am 1 2 mph 1017.3mb 66f 66f
12:30am 2 2 mph 1017.4mb 66f 66f
12:24am 1 3 mph 1017.4mb 66f 66f
12:18am 5 5 mph 1017.3mb 66f 66f
12:12am 3 5 mph 1017.3mb 65f 66f
12:06am 3 5 mph 1017.3mb 65f 66f
12:00am 3 3 mph 1017.4mb 65f 66f
Tue 07/18 11:54pm 2 3 mph 1017.5mb 65f 66f
11:48pm 3 5 mph 1017.5mb 65f 67f
11:42pm 3 3 mph 1017.5mb 65f 67f
11:36pm 3 3 mph 1017.5mb 65f 67f
11:30pm 2 2 mph 1017.5mb 65f 67f
11:24pm 1 2 mph 1017.5mb 65f 67f
11:18pm 2 2 mph 1017.5mb 64f 67f
11:12pm 2 2 mph 1017.5mb 64f 67f
11:06pm 1 2 mph 1017.5mb 64f 67f
11:00pm  -  2 mph 1017.6mb 64f 67f
10:54pm 1 2 mph 1017.6mb 64f 67f
10:48pm  -  2 mph 1017.7mb 64f 67f
10:42pm 2 3 mph 1017.6mb 64f 67f
10:36pm 2 3 mph 1017.6mb 64f 67f
10:30pm 2 3 mph 1017.7mb 65f 67f
10:24pm 2 3 mph 1017.7mb 65f 67f
10:18pm 2 2 mph 1017.8mb 64f 67f
10:12pm 1 3 mph 1017.8mb 64f 67f
10:06pm 1 5 mph 1017.8mb 64f 67f
10:00pm 3 5 mph 1017.8mb 64f 67f
9:54pm 2 2 mph 1017.9mb 64f 67f
9:48pm 2 5 mph 1017.7mb 64f 67f
9:42pm 2 6 mph 1017.7mb 64f 67f
9:36pm 5 5 mph 1017.7mb 64f 67f
9:30pm 5 6 mph 1017.6mb 64f 67f
9:24pm 6 7 mph 1017.6mb 64f 67f
9:18pm 5 7 mph 1017.6mb 64f 67f
9:12pm 5 7 mph 1017.7mb 64f 67f
9:06pm 6 7 mph 1017.7mb 64f 67f
9:00pm 6 7 mph 1017.8mb 64f 67f
8:54pm 7 9 mph 1017.7mb 63f 67f
8:48pm 7 9 mph 1017.9mb 63f 67f
8:42pm 7 9 mph 1017.6mb 63f 67f
8:36pm 7 9 mph 1017.7mb 63f 67f
8:30pm 8 11 mph 1017.7mb 63f 68f
8:24pm 9 11 mph 1017.8mb 63f 68f
8:18pm 8 10 mph 1017.8mb 62f 68f
8:12pm 6 10 mph 1017.9mb 62f 68f
8:06pm 7 8 mph 1018mb 61f 68f
8:00pm 8 10 mph 1018mb 61f 68f
7:54pm 10 13 mph 1018.1mb 61f 68f
7:48pm 8 10 mph 1018.2mb 61f 68f
7:42pm 9 10 mph 1018.2mb 61f 68f
7:36pm 7 9 mph 1017.9mb 61f 67f
7:30pm 7 10 mph 1017.8mb 62f 67f
7:24pm 10 11 mph 1017.7mb 62f 67f
7:18pm 9 10 mph 1017.9mb 63f 67f
7:12pm 8 9 mph 1017.8mb 63f 67f
7:06pm 8 10 mph 1017.7mb 63f 68f
7:00pm 9 11 mph 1017.8mb 63f 68f
6:54pm 9 9 mph 1017.7mb 63f 68f
6:48pm 8 9 mph 1017.6mb 63f 68f
6:42pm 8 9 mph 1017.6mb 64f 68f
6:36pm 7 9 mph 1017.5mb 64f 68f
6:30pm 8 10 mph 1017.4mb 64f 69f
6:24pm 9 11 mph 1017.3mb 64f 69f
6:18pm 9 11 mph 1017.1mb 64f 68f
6:12pm 7 9 mph 1017.2mb 64f 68f
6:06pm 7 11 mph 1017.2mb 64f 69f
6:00pm 7 9 mph 1017.3mb 64f 69f
5:54pm 8 10 mph 1017.2mb 64f 69f
5:48pm 8 10 mph 1017.3mb 64f 69f
5:42pm 9 10 mph 1017.3mb 64f 69f
5:36pm 8 9 mph 1017.3mb 64f 69f
5:30pm 8 13 mph 1017.4mb 64f 69f
5:24pm 11 16 mph 1017.3mb 64f 69f
5:18pm 13 16 mph 1017.3mb 63f 69f
5:12pm 9 11 mph 1017.3mb 63f 69f
5:06pm 9 13 mph 1017.1mb 63f 69f
5:00pm 10 13 mph 1017.2mb 63f 69f
4:54pm 8 10 mph 1017.2mb 63f 69f
4:48pm 7 8 mph 1017.3mb 63f 70f
4:42pm 7 9 mph 1017.3mb 63f 70f
4:36pm 8 9 mph 1017.3mb 63f 70f
4:30pm 7 10 mph 1017.4mb 63f 69f
4:24pm 8 10 mph 1017.4mb 63f 70f
4:18pm 8 9 mph 1017.5mb 63f 70f
4:12pm 7 9 mph 1017.5mb 63f 70f
4:06pm 7 9 mph 1017.5mb 63f 70f
4:00pm 7 8 mph 1017.6mb 63f 70f
3:54pm 7 8 mph 1017.6mb 63f 70f
3:48pm 7 9 mph 1017.7mb 63f 69f
3:42pm 7 11 mph 1017.7mb 65f 69f
3:36pm 6 9 mph 1017.7mb 67f 69f
3:30pm 7 9 mph 1017.7mb 67f 69f
3:24pm 6 9 mph 1017.8mb 67f 69f
3:18pm 7 10 mph 1017.8mb 67f 69f
3:12pm 5 7 mph 1017.9mb 67f 69f
3:06pm 2 7 mph 1018.1mb 67f 69f
3:00pm 6 7 mph 1017.9mb 67f 68f
2:54pm 6 9 mph 1017.9mb 67f 69f
2:48pm 7 11 mph 1018.1mb 67f 69f
2:42pm 11 14 mph 1018.1mb 67f 69f
2:36pm 13 15 mph 1018.2mb 67f 69f
2:30pm 13 16 mph 1018.2mb 67f 69f
2:24pm 14 16 mph 1018.1mb 67f 68f
2:18pm 13 16 mph 1018.2mb 67f 68f
2:12pm 14 16 mph 1018.2mb 67f 68f
2:06pm 14 15 mph 1018.3mb 67f 68f
2:00pm 10 15 mph 1018.3mb 67f 68f
1:54pm 13 15 mph 1018.4mb 67f 68f
1:48pm 8 13 mph 1018.5mb 67f 68f
1:42pm 9 11 mph 1018.7mb 66f 68f
1:36pm 6 9 mph 1018.7mb 66f 69f
1:30pm 7 9 mph 1018.7mb 66f 69f
1:24pm 7 9 mph 1018.7mb 66f 69f
1:18pm 7 9 mph 1018.7mb 66f 69f
1:12pm 6 8 mph 1018.9mb 66f 69f
1:06pm 6 7 mph 1018.9mb 66f 69f
1:00pm 6 8 mph 1019mb 66f 69f
12:54pm 7 10 mph 1019mb 66f 69f
12:48pm 6 8 mph 1019.2mb 66f 69f
12:42pm 7 8 mph 1019.2mb 66f 69f
12:36pm 6 7 mph 1019.3mb 66f 69f
12:30pm 6 8 mph 1019.4mb 66f 69f
12:24pm 6 8 mph 1019.5mb 66f 69f